Lid_Strength_Index
5 4 4 4 3 3 3 2 2 2 2 2 1 1 1 0 0 1 1 0 0 1 0 0 -1 -0 -0 -1 -1 -1 -1 -0 -0
5 5 4 4 3 3 2 2 2 2 2 1 1 1 1 1 0 0 1 0 -0 0 -0 -0 -1 -1 -0 -1 -1 -1 -1 -0 -0
5 4 4 4 3 3 2 2 2 1 1 2 1 1 1 1 0 0 -0 0 0 -0 -0 -1 -1 -1 -1 -1 -1 -1 -1 -0 -0
4 4 4 4 3 2 2 2 2 2 1 1 1 1 1 1 1 0 0 0 0 -0 -0 -1 -0 -0 -0 -0 -0 -1 -0 -0 -0
4 4 4 3 3 3 2 2 2 2 2 2 1 1 1 1 1 0 1 1 0 -0 -0 -0 -0 -0 -0 -0 -0 -0 -0 0 -0
4 4 4 3 3 3 3 2 2 2 2 2 1 1 1 1 1 1 1 0 0 -0 -0 -0 -0 -0 -0 0 -0 -0 -0 -0 -0
5 5 4 4 4 3 3 2 2 2 2 1 1 1 1 1 1 1 1 0 0 0 -0 0 -0 -0 -0 -0 -0 -0 -0 -0 0
5 5 5 4 4 3 3 3 2 2 2 1 1 1 1 1 1 1 0 0 0 0 0 -0 -0 -0 -0 -0 -0 0 0 -0 0
6 6 5 4 4 3 3 3 3 2 2 2 1 2 2 1 1 1 1 1 0 0 0 0 0 0 0 0 0 2 2 0 0
6 5 5 4 4 3 3 3 2 2 2 1 1 1 1 1 1 1 1 1 1 1 1 0 1 0 0 0 0 4 3 2 0
5 5 4 4 3 3 2 2 2 1 1 2 2 2 2 1 2 2 1 1 1 1 1 1 1 1 0 0 0 4 4 2 -0
4 4 3 3 3 2 2 2 2 2 2 2 2 2 2 2 2 2 2 2 1 1 1 1 1 1 0 1 0 5 5 3 0
3 3 3 3 2 2 2 2 2 2 2 2 2 2 2 1 1 2 2 2 1 1 1 1 1 1 0 2 1 6 7 4 1
3 2 2 2 2 2 2 2 2 2 2 3 2 1 1 1 1 1 1 1 1 1 1 1 1 1 1 0 1 1 7 7 0
3 3 2 2 2 2 2 1 2 2 2 2 1 1 1 1 1 1 1 1 2 1 1 2 2 2 2 1 1 6 7 8 6
3 3 2 2 2 2 2 1 1 2 2 1 1 2 2 1 1 1 1 1 2 2 2 2 2 2 3 2 4 5 9 9 8
3 3 3 2 2 2 3 1 1 1 1 1 1 2 2 1 2 2 1 1 1 2 2 2 2 3 3 2 4 4 4 3 4
3 3 2 2 2 2 2 2 2 1 1 1 2 2 2 2 2 2 8 8 8 4 3 4 2 2 2 3 3 3 5 4 3
3 3 2 2 2 2 2 2 2 1 1 1 2 2 2 2 4 4 3 3 5 11 10 13 13 10 4 2 8 11 11 11 10
3 3 3 3 2 2 2 2 2 1 1 1 2 2 2 2 3 2 2 2 3 3 7 11 14 14 12 10 9 12 12 12 11